Satellite-Ground Cal/Val Site Overpasses Predictions

Prediction of Satellite NPP Overpassing Cal/Val Site: Antarctic Dome C

Ground Cal/Val Site Location: Latitude: -75.10, Longitude: 123.35; Satellite-Ground Site NADIR distance within 100 km.

Table of predicted overpasses for the next 14.0 days since TLE Epoch: 4/6/2018
Interval Starting Time Ending Time Minimum Distance Time Minimum Distance (km)
1 04/07/2018 14:36:00 04/07/2018 14:36:14 04/07/2018 14:36:07 85.87
2 04/08/2018 07:37:32 04/08/2018 07:38:00 04/08/2018 07:37:46 34.90
3 04/09/2018 07:18:47 04/09/2018 07:19:06 04/09/2018 07:18:56 75.14
4 04/11/2018 15:01:02 04/11/2018 15:01:25 04/11/2018 15:01:14 58.24
5 04/12/2018 14:42:12 04/12/2018 14:42:37 04/12/2018 14:42:25 50.87
6 04/13/2018 07:43:53 04/13/2018 07:44:13 04/13/2018 07:44:03 70.23
7 04/14/2018 07:25:01 04/14/2018 07:25:28 04/14/2018 07:25:15 37.78
8 04/16/2018 15:07:28 04/16/2018 15:07:36 04/16/2018 15:07:32 96.03
9 04/17/2018 14:48:27 04/17/2018 14:48:56 04/17/2018 14:48:42 15.23


NCC Satellite Cal/Val Overpasses Prediction Service
